Location: Unspecified
(64.9000°N, 0.0000°E)
Time: 18:46:12
(UTC+00:00)

Vanguard 1 - Pass Details

Date: 24 June 2019
Orbit: 655 x 3829 km, 34.2° (Epoch: 22 August)

Event Time Altitude Azimuth Distance (km) Brightness Sun altitude
Rises 04:11:21 0° 230° (SW) 6,915 13.7 10.3°
Reaches altitude 10° 04:21:07 10° 204° (SSW) 4,977 13.2 11.2°
Maximum altitude 04:24:25 11° 190° (S) 4,514 13.1 11.5°
Drops below altitude 10° 04:27:20 10° 175° (S) 4,280 13.1 11.7°
Sets 04:33:30 0° 143° (SE) 4,522 13.6 12.3°
